Miscellaneous Local Product
Issued by NWS North Platte, NE

Home | Current Version | Previous Version | Graphics & Text | Print | Product List | Glossary On
Versions: 1 2 3 4 5 6 7 8 9 10 11 12 13 14 15 16 17 18 19 20 21 22 23 24 25 26 27 28 29 30 31 32 33 34 35 36 37 38 39 40 41 42 43 44 45 46 47 48 49 50
276
AXUS43 KLBF 230410
MISLBF


WESTERN AND NORTH CENTRAL NEBRASKA HOURLY WEATHER ROUNDUP
NATIONAL WEATHER SERVICE NORTH PLATTE NE
1100 PM CDT SAT APR 22 2017

NOTE: "FAIR" INDICATES FEW OR NO CLOUDS BELOW 12,000 FEET WITH NO
SIGNIFICANT WEATHER AND/OR OBSTRUCTIONS TO VISIBILITY.

NOTE: STATIONS NOT REPORTING VARIABLES SUCH AS SKY/WEATHER OR
PRESSURE ARE PROVIDED BY RAWS AND APRS NETWORKS AND ARE NOT UNDER
NATIONAL WEATHER SERVICE QUALITY CONTROL.

...OBSERVATIONS IN AND NEAR THE EASTERN PANHANDLE OF NEBRASKA...

CITY           SKY/WX    TMP DP  RH WIND       PRES   REMARKS
PINE RIDGE     CLEAR     46  33  60 S8        30.10R
CHADRON        CLEAR     52  31  44 S15       30.10R
ALLIANCE       CLEAR     46  31  55 S15       30.14F
SIDNEY         CLEAR     36  31  82 S9        30.20F WCI  29
CRESCENT LAKE    N/A     49  30  47 S10         N/A
$$

...OBSERVATIONS IN NORTHERN NEBRASKA AND FAR SOUTHERN SOUTH DAKOTA...

CITY           SKY/WX    TMP DP  RH WIND       PRES   REMARKS
WINNER         FAIR      55  32  41 S15       30.11F
VALENTINE      CLEAR     53  28  38 S13       30.13F
THEDFORD       CLEAR     48  26  43 S9        30.19S
AINSWORTH      CLEAR     42  35  75 S7        30.16S
O`NEILL        CLEAR     49  33  54 S6        30.19R
ORD            CLEAR     42  33  70 S8        30.19S
BROKEN BOW     CLEAR     36  27  69 CALM      30.20S
VALENTINE NWR    N/A     47  30  51 S6          N/A
HALSEY           N/A     50  24  36 S6          N/A
BUTTE            N/A     50  35  56 S3          N/A
CHAMBERS         N/A     45  31  58 CALM        N/A
EWING            N/A     50  35  57 CALM        N/A
$$

...OBSERVATIONS IN SOUTHWEST NEBRASKA AND FAR NORTHEAST COLORADO...

CITY           SKY/WX    TMP DP  RH WIND       PRES   REMARKS
HOLYOKE        FAIR      43  36  75 S7        30.23S
IMPERIAL       CLEAR     45  33  63 SW7       30.23R
OGALLALA       CLEAR     46  28  50 CALM      30.21S
NORTH PLATTE   CLEAR     41  29  62 CALM      30.21R
MCCOOK         CLEAR     45  29  53 SW6       30.23R
LEXINGTON      CLEAR     48  29  47 SE7       30.22S
STAPLETON        N/A     45  28  50 CALM        N/A
GOTHENBURG       N/A     49  28  44 CALM        N/A
CALLAWAY         N/A     43  28  56 S7          N/A
$$

...OBSERVATIONS IN CENTRAL LINCOLN COUNTY AREA...

CITY           SKY/WX    TMP DP  RH WIND       PRES   REMARKS
N.P. AIRPORT   CLEAR     41  29  62 CALM      30.21R
N.P. DOWNTOWN    N/A     49  31  51 CALM        N/A
N.P. HILLCREST   N/A     49  30  48 SE6         N/A
$$

...SOME OBSERVATIONS FROM AROUND THE REGION...

CITY           SKY/WX    TMP DP  RH WIND       PRES   REMARKS
DENVER         CLEAR     39  31  72 S13       30.19F WCI  31
LIMON          CLEAR     40  34  79 S8        30.26R WCI  34
ASPEN          CLOUDY    38  20  48 S3        30.19R
LARAMIE        CLEAR     37  28  70 SE20      30.15S WCI  27
CASPER         CLEAR     42  33  70 SW3       30.04S
CHEYENNE       CLEAR     41  30  65 S13       30.18S
SCOTTSBLUFF    CLEAR     49  30  48 S9        30.15S
GRAND ISLAND   CLEAR     45  31  58 CALM      30.23S
OMAHA          CLEAR     49  37  63 N3        30.21R
SIOUX FALLS    CLEAR     54  38  54 SW5       30.15S
PIERRE         CLEAR     50  35  56 SE5       30.05F
RAPID CITY     CLEAR     46  33  60 S8        30.04S
BISMARCK       CLOUDY    41  35  79 NE18      30.15R
KANSAS CITY    CLEAR     49  31  49 N8        30.18R
HILL CITY      CLEAR     40  34  79 W3        30.26R
WICHITA        CLEAR     48  40  73 N8        30.19R
DODGE CITY     CLEAR     42  34  73 NW5       30.26R
OKLAHOMA CITY  PTCLDY    49  41  74 W8        30.18R
DALLAS         PTCLDY    56  45  66 N12       30.16R
AMARILLO       CLEAR     39  29  67 NE9       30.30R WCI  33
$$




USA.gov is the U.S. government's official web portal to all federal, state and local government web resources and services.